| time (UTC) | temp F | wind direction | speed MPH | gust MPH | rain 1hr in | rain 24hr in | rain mn in | humidity % | barometer mb |
| 20260508181556 | 62 | 225 | 1.0 | 6.0 | 0.00 | 0.20 | 0.20 | 69 | 1010.2 |
| 20260508180033 | 62 | 326 | 1.0 | 8.0 | 0.00 | 0.20 | 0.20 | 70 | 1010.6 |
| 20260508174531 | 62 | 287 | 0.0 | 4.0 | 0.00 | 0.20 | 0.20 | 71 | 1011.0 |
| 20260508173013 | 61 | 12 | 0.0 | 7.0 | 0.00 | 0.20 | 0.20 | 73 | 1011.0 |
| 20260508171523 | 62 | 248 | 1.0 | 5.0 | 0.00 | 0.20 | 0.20 | 69 | 1011.1 |
| 20260508170056 | 61 | 109 | 0.0 | 3.0 | 0.00 | 0.20 | 0.20 | 70 | 1011.0 |
| 20260508164553 | 61 | 239 | 0.0 | 5.0 | 0.00 | 0.20 | 0.20 | 71 | 1011.3 |
| 20260508163034 | 61 | 268 | 0.0 | 6.0 | 0.00 | 0.20 | 0.20 | 70 | 1011.6 |
| 20260508161541 | 61 | 199 | 1.0 | 5.0 | 0.00 | 0.20 | 0.20 | 72 | 1011.6 |
| 20260508160016 | 61 | 254 | 1.0 | 6.0 | 0.00 | 0.20 | 0.20 | 69 | 1011.6 |
| 20260508154511 | 61 | 158 | 1.0 | 8.0 | 0.00 | 0.20 | 0.20 | 72 | 1011.8 |
| 20260508153051 | 60 | 240 | 0.0 | 9.0 | 0.00 | 0.20 | 0.20 | 72 | 1011.8 |
| 20260508151554 | 60 | 206 | 1.0 | 9.0 | 0.00 | 0.20 | 0.20 | 75 | 1011.9 |
| 20260508150029 | 59 | 184 | 0.0 | 7.0 | 0.00 | 0.20 | 0.20 | 79 | 1012.1 |
| 20260508144527 | 58 | 165 | 2.0 | 6.0 | 0.00 | 0.20 | 0.20 | 79 | 1012.3 |
| 20260508143009 | 58 | 188 | 2.0 | 7.0 | 0.00 | 0.20 | 0.20 | 79 | 1012.3 |
| 20260508141516 | 59 | 170 | 2.0 | 6.0 | 0.00 | 0.20 | 0.20 | 79 | 1012.1 |
| 20260508140054 | 57 | 190 | 2.0 | 9.0 | 0.00 | 0.20 | 0.20 | 80 | 1012.3 |
| 20260508134550 | 57 | 204 | 2.0 | 7.0 | 0.00 | 0.20 | 0.20 | 84 | 1012.3 |
| 20260508133023 | 55 | 140 | 0.0 | 6.0 | 0.00 | 0.20 | 0.20 | 88 | 1012.3 |
| 20260508131520 | 54 | 205 | 1.0 | 4.0 | 0.00 | 0.20 | 0.20 | 91 | 1012.4 |
| 20260508130001 | 54 | 179 | 1.0 | 3.0 | 0.00 | 0.20 | 0.20 | 93 | 1012.4 |
| 20260508124605 | 52 | 172 | 0.0 | 5.0 | 0.00 | 0.20 | 0.20 | 95 | 1012.5 |
| 20260508123053 | 52 | 190 | 1.0 | 5.0 | 0.00 | 0.20 | 0.20 | 96 | 1012.6 |
| 20260508121544 | 51 | 147 | 0.0 | 4.0 | 0.00 | 0.20 | 0.20 | 96 | 1012.6 |
| 20260508120023 | 52 | 275 | 0.0 | 1.0 | 0.00 | 0.20 | 0.20 | 97 | 1012.6 |
| 20260508114526 | 51 | 275 | 0.0 | 0.0 | 0.00 | 0.20 | 0.20 | 97 | 1012.7 |
| 20260508113011 | 50 | 275 | 0.0 | 0.0 | 0.01 | 0.20 | 0.20 | 96 | 1012.5 |
| 20260508111504 | 50 | 275 | 0.0 | 0.0 | 0.02 | 0.20 | 0.20 | 96 | 1012.5 |
| 20260508110045 | 51 | 275 | 0.0 | 0.0 | 0.02 | 0.20 | 0.20 | 96 | 1012.4 |
| 20260508104552 | 51 | 275 | 0.0 | 0.0 | 0.03 | 0.20 | 0.20 | 96 | 1012.4 |
| 20260508103028 | 51 | 275 | 0.0 | 0.0 | 0.03 | 0.19 | 0.19 | 96 | 1012.6 |
| 20260508101525 | 51 | 275 | 0.0 | 0.0 | 0.02 | 0.18 | 0.18 | 96 | 1012.6 |
| 20260508100008 | 51 | 275 | 0.0 | 1.0 | 0.03 | 0.18 | 0.18 | 96 | 1012.5 |
| 20260508094517 | 51 | 275 | 0.0 | 3.0 | 0.03 | 0.17 | 0.17 | 96 | 1012.6 |
| 20260508093054 | 51 | 275 | 0.0 | 0.0 | 0.03 | 0.16 | 0.16 | 96 | 1012.9 |
| 20260508091556 | 51 | 275 | 0.0 | 0.0 | 0.05 | 0.16 | 0.16 | 95 | 1012.9 |
| 20260508090042 | 51 | 275 | 0.0 | 0.0 | 0.04 | 0.15 | 0.15 | 95 | 1012.9 |
| 20260508084528 | 51 | 275 | 0.0 | 0.0 | 0.03 | 0.14 | 0.14 | 94 | 1012.7 |
| 20260508083010 | 51 | 275 | 0.0 | 0.0 | 0.03 | 0.13 | 0.13 | 94 | 1013.3 |
| 20260508081524 | 51 | 211 | 0.0 | 1.0 | 0.01 | 0.11 | 0.11 | 93 | 1013.0 |
| 20260508080052 | 51 | 200 | 2.0 | 6.0 | 0.03 | 0.11 | 0.11 | 93 | 1013.1 |
| 20260508074548 | 51 | 221 | 1.0 | 4.0 | 0.04 | 0.11 | 0.11 | 94 | 1013.3 |
| 20260508073035 | 51 | 119 | 0.0 | 2.0 | 0.05 | 0.10 | 0.10 | 94 | 1013.3 |
| 20260508071534 | 51 | 240 | 0.0 | 4.0 | 0.08 | 0.10 | 0.10 | 93 | 1013.6 |
| 20260508070040 | 51 | 172 | 0.0 | 4.0 | 0.08 | 0.08 | 0.08 | 93 | 1013.6 |
| 20260508064533 | 52 | 140 | 2.0 | 6.0 | 0.07 | 0.07 | 0.07 | 93 | 1013.7 |
| 20260508063028 | 52 | 38 | 0.0 | 3.0 | 0.05 | 0.05 | 0.05 | 92 | 1014.1 |
| 20260508061524 | 52 | 11 | 0.0 | 4.0 | 0.02 | 0.02 | 0.02 | 90 | 1014.4 |
| 20260508060026 | 51 | 209 | 0.0 | 3.0 | 0.00 | 0.00 | 0.00 | 90 | 1013.8 |
| 20260508054513 | 52 | 233 | 0.0 | 5.0 | 0.00 | 0.00 | 0.00 | 89 | 1014.0 |
| 20260508053012 | 52 | 259 | 0.0 | 6.0 | 0.00 | 0.00 | 0.00 | 87 | 1014.3 |
| 20260508050111 | 52 | 161 | 0.0 | 3.0 | 0.00 | 0.00 | 0.00 | 84 | 1013.9 |
| 20260508044558 | 52 | 181 | 0.0 | 4.0 | 0.00 | 0.00 | 0.00 | 84 | 1013.7 |
| 20260508043050 | 52 | 159 | 0.0 | 4.0 | 0.00 | 0.00 | 0.00 | 83 | 1013.7 |
| 20260508041530 | 53 | 238 | 0.0 | 3.0 | 0.00 | 0.00 | 0.00 | 83 | 1013.6 |
| 20260508040031 | 53 | 287 | 0.0 | 5.0 | 0.00 | 0.00 | 0.00 | 82 | 1013.5 |
| 20260508034519 | 53 | 241 | 0.0 | 1.0 | 0.00 | 0.00 | 0.00 | 81 | 1013.4 |
| 20260508033015 | 53 | 237 | 0.0 | 3.0 | 0.00 | 0.00 | 0.00 | 79 | 1013.4 |
| 20260508031513 | 53 | 168 | 0.0 | 2.0 | 0.00 | 0.00 | 0.00 | 79 | 1013.3 |
| 20260508030017 | 54 | 167 | 0.0 | 2.0 | 0.00 | 0.00 | 0.00 | 79 | 1013.4 |
| 20260508024516 | 54 | 167 | 0.0 | 1.0 | 0.00 | 0.00 | 0.00 | 76 | 1013.5 |
| 20260508023007 | 54 | 163 | 0.0 | 4.0 | 0.00 | 0.00 | 0.00 | 74 | 1013.4 |
| 20260508021505 | 54 | 254 | 1.0 | 5.0 | 0.00 | 0.00 | 0.00 | 74 | 1013.4 |
| 20260508020006 | 54 | 218 | 0.0 | 7.0 | 0.00 | 0.00 | 0.00 | 73 | 1013.3 |
| 20260508014555 | 55 | 184 | 0.0 | 2.0 | 0.00 | 0.00 | 0.00 | 72 | 1013.0 |
| 20260508013054 | 55 | 171 | 0.0 | 4.0 | 0.00 | 0.00 | 0.00 | 70 | 1012.9 |
| 20260508011528 | 56 | 184 | 0.0 | 4.0 | 0.00 | 0.00 | 0.00 | 69 | 1012.8 |
| 20260508010029 | 58 | 210 | 2.0 | 5.0 | 0.00 | 0.00 | 0.00 | 65 | 1012.6 |
| 20260508004509 | 59 | 165 | 1.0 | 7.0 | 0.00 | 0.00 | 0.00 | 62 | 1012.3 |
| 20260508003009 | 60 | 182 | 1.0 | 7.0 | 0.00 | 0.00 | 0.00 | 60 | 1012.3 |
| 20260508001556 | 60 | 186 | 0.0 | 6.0 | 0.00 | 0.00 | 0.00 | 60 | 1012.4 |
| 20260508000055 | 61 | 202 | 1.0 | 7.0 | 0.00 | 0.00 | 0.00 | 56 | 1012.4 |
| 20260507234533 | 62 | 230 | 3.0 | 8.0 | 0.00 | 0.00 | 0.00 | 53 | 1012.3 |
| 20260507233035 | 63 | 59 | 2.0 | 11.0 | 0.00 | 0.00 | 0.00 | 51 | 1012.2 |
| 20260507231514 | 63 | 253 | 2.0 | 9.0 | 0.00 | 0.00 | 0.00 | 52 | 1012.3 |
| 20260507230024 | 62 | 34 | 1.0 | 15.0 | 0.00 | 0.00 | 0.00 | 53 | 1012.5 |
| 20260507224553 | 62 | 346 | 3.0 | 15.0 | 0.00 | 0.00 | 0.00 | 53 | 1012.5 |
| 20260507223052 | 61 | 281 | 1.0 | 8.0 | 0.00 | 0.00 | 0.00 | 53 | 1012.7 |
| 20260507221533 | 61 | 193 | 1.0 | 6.0 | 0.00 | 0.00 | 0.00 | 54 | 1012.6 |
| 20260507220032 | 61 | 57 | 1.0 | 7.0 | 0.00 | 0.00 | 0.00 | 52 | 1012.8 |
| 20260507214518 | 61 | 12 | 2.0 | 8.0 | 0.00 | 0.00 | 0.00 | 52 | 1012.8 |
| 20260507213016 | 60 | 307 | 2.0 | 8.0 | 0.00 | 0.00 | 0.00 | 54 | 1012.9 |
| 20260507211528 | 60 | 204 | 2.0 | 8.0 | 0.00 | 0.00 | 0.00 | 54 | 1013.1 |
| 20260507210015 | 60 | 341 | 0.0 | 8.0 | 0.00 | 0.00 | 0.00 | 55 | 1013.2 |
| 20260507204512 | 60 | 225 | 2.0 | 15.0 | 0.00 | 0.00 | 0.00 | 54 | 1013.4 |
| 20260507203010 | 60 | 233 | 2.0 | 10.0 | 0.00 | 0.00 | 0.00 | 56 | 1013.7 |
| 20260507201506 | 59 | 229 | 1.0 | 11.0 | 0.00 | 0.00 | 0.00 | 57 | 1013.9 |
| 20260507200005 | 58 | 173 | 1.0 | 6.0 | 0.00 | 0.00 | 0.00 | 60 | 1014.1 |
| 20260507194503 | 56 | 22 | 1.0 | 4.0 | 0.00 | 0.00 | 0.00 | 66 | 1014.2 |
| 20260507193002 | 54 | 60 | 1.0 | 5.0 | 0.00 | 0.00 | 0.00 | 71 | 1014.4 |
| 20260507191543 | 53 | 42 | 3.0 | 8.0 | 0.00 | 0.00 | 0.00 | 73 | 1014.9 |
| 20260507190042 | 53 | 22 | 6.0 | 16.0 | 0.00 | 0.00 | 0.00 | 67 | 1015.7 |
| 20260507184522 | 55 | 24 | 6.0 | 13.0 | 0.00 | 0.00 | 0.00 | 64 | 1015.6 |
| 20260507183022 | 56 | 5 | 5.0 | 12.0 | 0.00 | 0.00 | 0.00 | 62 | 1015.4 |